x

Prestwick Rnas (03136) Weather Station

2:00am - Mon 22nd Dec 2014 All times are GMT.

  • Wind
    16mph, 34mph gusts
  • 空気 Temp 50°f
  • Sea Pressure 1003mb
  • Prestwick Rnas
  • Prestwick Rnas

More Historic Weather Station data

Upgrade to MSW Pro to gain access to the past 30 days of data for over 8000 Wavebouys and Weather Stations around the globe.

Join Pro

Comparision Forecast

View Surf forecast
   
Mon 12/22 2:00am 16 34 mph 1003mb 50f
1:00am 25 36 mph 1003mb 51f
12:00am 26 38 mph 1004mb 51f
Sun 12/21 11:00pm 23 36 mph 1004mb 51f
10:00pm 25 37 mph 1005mb 51f
9:00pm 26 34 mph 1005mb 52f
8:00pm 24 33 mph 1006mb 52f
7:00pm 21 29 mph 1007mb 51f
6:00pm 22 43 mph 1007mb 51f
5:00pm 30 43 mph 1007mb 52f
4:00pm 30 43 mph 1008mb 52f
3:00pm 28 41 mph 1008mb 51f
2:00pm 29 40 mph 1009mb 52f
1:00pm 29 41 mph 1011mb 52f
12:00pm 28 37 mph 1011mb 51f
11:00am 25 38 mph 1012mb 51f
10:00am 26 39 mph 1012mb 49f
9:00am 28 41 mph 1013mb 48f
8:00am 23 34 mph 1014mb 48f
7:00am 26 36 mph 1015mb 48f
6:00am 29 38 mph 1015mb 47f
5:00am 24 34 mph 1016mb 47f
4:00am 15
mph
1018mb 47f
3:00am 18 29 mph 1019mb 46f
2:00am 21 31 mph 1021mb 47f
1:00am 18
mph
1021mb 47f
12:00am 18 29 mph 1022mb 46f
Sat 12/20 11:00pm 18 30 mph 1022mb 47f
10:00pm 19 31 mph 1023mb 46f
9:00pm 18
mph
1023mb 46f
8:00pm 17
mph
1023mb 47f
7:00pm 9
mph
1024mb 46f
6:00pm 13
mph
1023mb 46f
5:00pm 11
mph
1023mb 47f
4:00pm 8
mph
1023mb 46f
3:00pm 10
mph
1022mb 47f
2:00pm 15
mph
1022mb 46f
1:00pm 16
mph
1021mb 48f
12:00pm 14 33 mph 1021mb 46f
11:00am 11
mph
1020mb 46f
10:00am 16 30 mph 1019mb 45f
9:00am 15 39 mph 1018mb 45f
8:00am 14 36 mph 1017mb 46f
7:00am 21 39 mph 1016mb 43f
6:00am 18 33 mph 1015mb 46f
5:00am 21 38 mph 1014mb 46f
4:00am 17 33 mph 1014mb 45f
3:00am 22 36 mph 1013mb 44f
2:00am 25 41 mph 1013mb 45f
1:00am 25 45 mph 1012mb 44f
12:00am 22 48 mph 1012mb 45f
Fri 12/19 11:00pm 22 45 mph 1011mb 44f
10:00pm 22 38 mph 1011mb 47f
9:00pm 22 34 mph 1011mb 44f
8:00pm 21 36 mph 1011mb 45f
7:00pm 22 43 mph 1010mb 44f
6:00pm 21 51 mph 1009mb 45f
5:00pm 25 44 mph 1009mb 45f
4:00pm 19 39 mph 1008mb 42f
3:00pm 23 39 mph 1007mb 43f
2:00pm 15 37 mph 1007mb 45f
1:00pm 21 33 mph 1006mb 45f
12:00pm 19 37 mph 1006mb 42f
11:00am 19 40 mph 1005mb 43f
10:00am 19 38 mph 1004mb 42f
9:00am 24 37 mph 1003mb 43f
8:00am 21 37 mph 1002mb 43f
7:00am 26 43 mph 1002mb 42f
6:00am 23 36 mph 1001mb 44f
5:00am 25 43 mph 1001mb 42f
4:00am 23 43 mph 1000mb 41f
3:00am 19 46 mph 1000mb 42f
2:00am 17 49 mph 1000mb 44f
1:00am 22 33 mph 1000mb 45f
12:00am 24 39 mph 1000mb 43f
Thu 12/18 11:00pm 24 37 mph 1000mb 44f
10:00pm 14 41 mph 999mb 44f
9:00pm 15 29 mph 999mb 45f
8:00pm 15 31 mph 999mb 46f
7:00pm 17 33 mph 998mb 46f
6:00pm 21 30 mph 997mb 47f
5:00pm 14 29 mph 997mb 47f
4:00pm 19 30 mph 997mb 48f
3:00pm 17 29 mph 996mb 48f
2:00pm 19
mph
996mb 48f
1:00pm 14
mph
995mb 48f
12:00pm 7 44 mph 995mb 47f
11:00am 31 44 mph 993mb 53f
10:00am 28 37 mph 993mb 53f
9:00am 24 34 mph 994mb 52f
8:00am 19 31 mph 994mb 52f
7:00am 21 33 mph 995mb 52f
6:00am 23 30 mph 996mb 51f
5:00am 23 32 mph 997mb 51f
4:00am 24 33 mph 997mb 52f
3:00am 23 33 mph 997mb 51f